Location: Staunton
(38.1490°N, 79.0720°W)
Time: 20:29:54
(UTC-04:00)

ISS - Visible Passes

Search period start: 21 July 2017 00:00
Search period end: 31 July 2017 00:00
Orbit: 400 x 408 km, 51.6° (Epoch: 22 July)

Date Brightness Start Highest point End Pass type
(mag) Time Alt. Az. Time Alt. Az. Time Alt. Az.
21 Jul -0.4 03:51:10 10° N 03:52:21 11° NNE 03:53:32 10° NE visible
21 Jul -2.6 05:26:19 10° NW 05:29:28 46° NE 05:32:38 10° ESE visible
22 Jul -1.5 04:34:14 10° NNW 04:37:04 27° NNE 04:39:54 10° E visible
22 Jul -2.3 21:13:45 10° S 21:15:53 17° SE 21:18:02 10° E visible
22 Jul -2.7 22:48:59 10° WSW 22:52:06 43° NW 22:55:14 10° NE visible
23 Jul -0.3 00:28:11 10° NW 00:29:15 11° NNW 00:30:19 10° N visible
23 Jul -0.8 03:42:16 10° NNW 03:44:34 18° NNE 03:46:52 10° ENE visible
23 Jul -3.9 05:18:05 10° NW 05:21:19 67° SW 05:24:34 10° SE visible
23 Jul -3.9 21:56:30 10° SW 21:59:45 88° NW 22:03:00 10° NE visible
23 Jul -0.6 23:34:39 10° WNW 23:36:38 15° NNW 23:38:37 10° NNE visible
24 Jul -0.4 02:50:26 10° N 02:51:58 13° NNE 02:53:31 10° NE visible
24 Jul -3.3 04:25:47 10° NW 04:29:00 58° NE 04:32:14 10° ESE visible
24 Jul -3.5 21:04:23 10° SSW 21:07:28 43° SE 21:10:35 10° ENE visible
24 Jul -1.2 22:41:28 10° W 22:44:05 22° NNW 22:46:42 10° NNE visible
25 Jul -2.0 03:33:37 10° NNW 03:36:36 31° NNE 03:39:34 10° E visible
25 Jul -2.8 05:10:15 10° WNW 05:12:58 24° SW 05:15:41 10° S visible
25 Jul -2.1 21:48:33 10° WSW 21:51:35 35° NNW 21:54:37 10° NE visible
25 Jul -0.2 23:28:18 10° NNW 23:28:48 10° NNW 23:29:18 10° N visible
26 Jul -0.6 22:34:24 10° NW 22:36:08 13° NNW 22:37:51 10° NNE visible
27 Jul -0.9 21:41:05 10° WNW 21:43:30 19° NNW 21:45:56 10° NNE visible
29 Jul -0.6 21:34:07 10° NW 21:35:31 12° NNW 21:36:55 10° N visible
30 Jul -0.4 23:56:57 10° N 23:57:21 11° N 23:57:21 11° N visible
